Hourly Weather Roundup
Issued by NWS Central Illinois

Home | Current Version | Previous Version | Text Only | Print | Product List | Glossary On
Versions: 1 2 3 4 5 6 7 8 9 10 11 12 13 14 15 16 17 18 19 20 21 22 23 24 25 26 27 28 29 30 31 32 33 34 35 36 37 38 39 40 41 42 43 44 45 46 47 48 49 50
000
NZUS43 KILX 272310
HWRILX

AREA WEATHER ROUNDUP
NATIONAL WEATHER SERVICE, LINCOLN IL
500 PM CST MON FEB 27 2017


CITY           SKY/WX    TMP DP  RH WIND       PRES   REMARKS
BLOOMINGTON    PTCLDY    53  35  50 S12       30.05R
CHAMPAIGN      PTCLDY    57  36  45 S13       30.06S
DECATUR        PTCLDY    57  35  43 S9        30.05R
EFFINGHAM      PTCLDY    57  45  64 SE12      30.08F
FLORA          PTCLDY    58  46  62 SE13      30.08F
GALESBURG      CLOUDY    54  31  41 SE7       29.99S
JACKSONVILLE   CLEAR     59  32  36 S12       30.00F
LACON          CLOUDY    55  33  44 S9        30.02S
LAWRENCEVILLE  MOCLDY    55  45  68 SE10      30.11F
LITCHFIELD     CLEAR     58  41  53 S12       30.03R
$$


CITY           SKY/WX    TMP DP  RH WIND       PRES   REMARKS
LINCOLN        CLEAR     58  37  44 S8        30.02S
MACOMB         CLOUDY    57  29  33 SE10      30.00F
MATTOON        CLEAR     54  42  64 SE12      30.07R
MT CARMEL AP   PTCLDY    55  44  65 S8        30.10F
OLNEY-NOBLE AP PTCLDY    54  46  76 SE9       30.09F
PARIS          CLEAR     53  42  67 SE15      30.10S
PEORIA         PTCLDY    56  33  42 S8        30.02S
PONTIAC        PTCLDY    55  35  47 S9        30.05S
RANTOUL        PTCLDY    57  38  49 S9        30.06S
SPRINGFIELD    CLEAR     61  34  36 S10       30.02F
TAYLORVILLE    CLEAR     58  38  46 S12       30.03F
$$

...REGIONAL REPORTS...


CITY           SKY/WX    TMP DP  RH WIND       PRES   REMARKS
CHICAGO O`HARE CLOUDY    51  32  48 S6        30.06F
KANKAKEE       MOCLDY    54  35  48 SE10      30.08R
MOLINE         CLOUDY    54  31  41 S9        29.98F
MOUNT STERLING CLEAR     57  32  38 SE10      29.98S
MOUNT VERNON   CLEAR     58  45  62 SE8       30.06F
PITTSFIELD     CLEAR     59  35  39 SE13      29.98F
QUINCY         CLEAR     59  29  31 SE12      29.95F
ROCKFORD       CLOUDY    50  33  52 S9        30.06S
$$


CITY           SKY/WX    TMP DP  RH WIND       PRES   REMARKS
BURLINGTON     MOCLDY    56  28  34 SE6       29.96F
CEDAR RAPIDS   MOCLDY    52  28  39 SE7       29.93F
DES MOINES     CLOUDY    54  24  31 SE13      29.86F
KIRKSVILLE     MOSUNNY   58  29  33 SE13      29.89F
OTTUMWA        CLOUDY    55  21  26 SE9       29.91F
ST LOUIS       MOCLDY    64  39  39 SE10      29.99F
$$


CITY           SKY/WX    TMP DP  RH WIND       PRES   REMARKS
TERRE HAUTE    MOCLDY    52  42  69 SE9       30.11F
EVANSVILLE     CLEAR     58  46  64 E6        30.11F
INDIANAPOLIS   MOCLDY    49  41  74 SE10      30.13F
LAFAYETTE      MOCLDY    52  38  58 SE8       30.10S
MADISON        MOCLDY    47  29  49 S9        30.01S
MILWAUKEE      MOCLDY    46  33  60 S10       30.06F
$$





USA.gov is the U.S. government's official web portal to all federal, state and local government web resources and services.